Retour au catalogue

SL-8 R/B

ActifPO
NORAD 17067·ROCKET BODY·🇷🇺 Russia

Lancé Nov 13, 1986 depuis Plesetsk Cosmodrome

Loading…

Prochains Passages (prochaines 24 heures)

TLE

FraisSource: Space-Track

Époque: Sep 14, 2026, 16:43 UTC

1 17067U 86086B   26257.69694828  .00000075  00000-0  58929-4 0  9992
2 17067  82.9467 158.4289 0032962 228.8147 158.5731 13.78106588  2683

Suivez SL-8 R/B en temps réel avec AllMySat

Download on the App Store